Terminal Aerodrome Forecast
Issued by NWS

Home | Current Version | Previous Version | Graphics & Text | Print | Product List | Glossary On
Versions: 1 2 3 4 5 6 7 8 9 10 11 12 13 14 15 16 17 18 19 20 21 22 23 24 25 26 27 28 29 30 31 32 33 34 35 36 37 38 39 40 41 42 43 44 45 46 47 48 49 50
000
FTUS43 KLOT 231100
TAFGYY
TAF
KGYY 231124Z 2312/2412 19011G16KT P6SM VCSH OVC012
     FM231600 21012G18KT P6SM SCT020 BKN150
     FM240000 20007KT P6SM SCT020 OVC150
     FM240900 36008KT 6SM BR VCSH OVC050=

USA.gov is the U.S. government's official web portal to all federal, state and local government web resources and services.